Lapse_Rate
7.9 7.2 7.0 7.4 7.1 7.7 7.7 7.3 7.8 8.6 8.4 7.2 6.7 6.0 6.2 6.5 7.4 6.7 6.5 7.0 7.5 7.2
8.1 8.1 6.8 7.2 7.8 8.2 7.3 7.6 7.6 7.7 7.3 7.8 7.1 5.9 4.8 6.5 6.6 6.0 6.3 6.8 7.4 6.9
8.1 7.4 7.5 8.0 6.6 6.8 6.5 6.9 6.8 7.0 8.0 7.7 6.7 5.6 5.1 5.5 6.4 6.1 5.6 6.6 5.9 5.9
7.9 7.9 8.2 6.4 6.0 6.7 6.8 6.8 7.1 7.4 8.9 8.7 8.8 7.6 5.8 5.5 7.3 5.9 5.9 7.4 7.9 7.0
8.3 8.6 8.3 6.9 6.1 6.6 6.2 7.4 6.9 7.5 8.3 8.8 8.8 7.8 7.7 8.3 8.7 8.6 8.6 8.2 6.9 7.2
8.2 8.7 7.1 6.9 6.0 5.1 5.3 6.5 8.3 7.2 7.8 8.0 8.6 8.8 8.7 8.6 7.7 7.5 7.7 8.1 7.4 7.5
7.6 8.0 7.1 6.2 6.2 5.3 5.3 5.6 7.0 8.8 9.2 9.3 9.1 9.1 8.9 8.0 8.6 8.0 7.8 7.9 8.3 7.8
7.8 7.2 5.8 4.7 4.2 4.5 5.2 7.1 7.6 7.4 7.9 8.3 8.8 8.4 7.2 6.8 7.0 8.8 8.1 8.0 7.7 8.0
6.8 5.7 5.2 4.1 4.2 4.5 5.3 5.5 5.6 7.1 8.4 8.6 9.2 4.5 5.4 5.8 6.3 7.0 8.7 8.1 7.8 7.0
6.3 5.8 4.5 4.6 4.7 5.1 5.7 6.9 6.9 7.5 8.4 8.5 7.9 5.3 5.8 5.3 6.5 6.3 7.4 8.7 8.1 7.1
6.6 6.4 5.7 5.3 5.2 5.6 6.5 7.4 7.5 8.0 8.2 7.7 8.3 4.7 5.4 5.9 6.0 6.3 7.2 8.7 8.6 7.6
6.9 6.1 5.5 5.2 5.7 6.2 6.9 7.7 8.0 8.3 8.7 8.5 8.3 4.2 4.8 5.0 6.7 7.2 7.3 8.7 8.3 7.4
7.1 6.9 6.6 7.2 7.5 7.8 7.4 7.2 8.3 8.8 9.0 6.1 7.3 3.4 3.7 4.2 6.4 7.0 7.7 8.2 7.5 4.8
7.1 7.0 6.7 6.9 6.9 6.5 6.6 6.6 7.5 8.3 7.4 8.4 8.3 3.9 2.2 2.8 4.6 6.2 6.0 6.9 6.8 5.6
Wind_Speed
5 3 3 2 2 2 2 4 5 3 4 4 4 4 5 4 3 6 6 6 5 4
5 3 5 5 1 3 5 3 3 3 4 3 4 5 5 4 6 6 6 6 5 5
6 7 6 3 5 5 5 3 4 3 3 4 4 4 5 5 5 3 4 5 6 5
8 7 5 5 3 2 4 3 3 2 2 3 3 4 4 4 2 5 5 4 2 4
7 6 7 5 5 3 3 3 3 3 1 0 4 4 4 4 3 3 3 5 6 5
7 6 7 5 5 5 3 1 5 3 2 1 2 2 2 4 5 6 7 4 5 4
8 7 7 6 5 4 3 3 3 2 2 1 0 1 3 2 2 4 6 7 3 2
6 7 8 5 4 4 4 3 0 1 1 1 4 2 5 5 6 2 4 5 6 1
8 8 6 5 4 4 3 3 2 2 3 3 1 8 7 4 4 7 3 3 4 6
8 7 6 5 4 4 2 3 2 3 3 4 4 7 5 3 3 6 8 1 3 6
8 7 6 5 4 3 3 2 3 2 2 3 1 9 5 2 3 6 9 2 2 3
9 8 7 6 4 4 4 3 3 4 3 3 1 7 4 1 5 7 9 3 3 4
7 7 6 5 4 3 2 2 3 1 3 2 3 7 6 3 4 7 7 3 4 10
7 6 6 5 3 3 2 3 3 1 4 3 3 7 9 6 3 4 6 6 6 4
Wind_Direction
196 220 115 101 110 95 17 73 36 32 37 25 24 9 5 331 335 34 358 328 286 306
188 141 96 115 147 115 41 96 82 39 53 41 40 30 11 9 31 19 350 316 348 1
150 129 116 118 59 68 89 59 67 45 50 51 52 51 3 359 29 23 349 353 353 357
144 126 148 110 113 120 98 123 98 37 47 54 39 47 26 350 325 15 322 273 264 301
124 151 116 119 119 123 142 145 135 110 133 46 59 36 348 349 348 288 287 18 27 13
144 159 137 145 139 140 164 147 137 153 95 311 40 121 348 38 12 354 340 67 19 12
173 143 153 139 142 131 147 183 147 198 167 265 316 306 100 48 41 12 350 358 30 14
168 117 117 130 137 150 184 172 166 165 247 268 266 338 61 27 351 24 3 337 344 118
125 121 137 137 160 167 177 158 194 237 234 221 68 94 79 31 355 326 282 46 331 329
132 152 151 158 165 179 189 184 208 258 286 308 89 138 136 81 339 325 308 299 11 321
148 158 158 165 181 170 211 238 234 265 316 316 127 165 178 117 294 285 283 251 287 320
174 166 168 178 191 191 206 202 228 228 238 257 195 168 171 238 293 285 290 227 199 219
164 167 175 181 174 192 224 245 283 280 219 90 106 180 191 222 287 291 300 308 248 196
158 165 171 160 164 189 216 305 318 292 297 253 240 157 178 208 270 307 338 343 332 100